Flag for Austria Weather past 2 weeks in Marchtrenk, Upper Austria, Austria

Now
59 °F

Light rain. Broken clouds.


Feels Like: 58 °F
Forecast: 54 / 61 °F
Wind: 6 mph from West

Location: Linz / Hoersching-Flughafen

Current Time: Sep 1, 2014 at 5:33:07 PM

Latest Report: Sep 1, 2014 at 4:50 PM


Visibility: N/A

Pressure: 30.04 "Hg

Humidity: 88%

Dew point: 55 °F

Location of MarchtrenkLocation

Historic Weather in Marchtrenk — Graph

°F

Marchtrenk temperature yesterday

Maximum temperature yesterday: 68 °F (at 1:20 PM)
Minimum temperature yesterday: 54 °F (at 11:50 PM)
Average temperature yesterday: 61 °F

Past Weeks' High & Low Weather Summary

 TemperatureHumidityPressure
High75 °F (Aug 18, 2:20 PM)100% (Aug 18, 2:50 AM)30.15 "Hg (Aug 18, 2:50 AM)
Low45 °F (Aug 25, 4:20 AM)36% (Aug 28, 5:50 PM)29.74 "Hg (Aug 26, 4:20 PM)
Average60 °F81%29.99 "Hg
* Reported Aug 17 4:20 PM — Sep 1 4:20 PM, Marchtrenk, Weather by CustomWeather, © 2014

Note: Actual official high and low records may vary slightly from our data, if they occured in-between our weather recording intervals... More about our weather records

Advertising

Marchtrenk weather history for previous 24 hours

 ConditionsComfort  
Time TempWeatherWind HumidityBarometerVisibility
4:20 PM
Sep 1
59 °FLight rain. Broken clouds.1 mph88%30.04 "HgN/A
3:50 PM59 °FLight rain. Broken clouds.9 mph88%30.04 "HgN/A
3:20 PM59 °FLight rain. Partly sunny.10 mph88%30.04 "HgN/A
2:50 PM59 °FLight rain. Broken clouds.9 mph88%30.04 "HgN/A
2:20 PM59 °FLight rain. Broken clouds.10 mph88%30.04 "HgN/A
1:50 PM57 °FLight rain. Broken clouds.12 mph94%30.04 "HgN/A
1:20 PM57 °FRain. Broken clouds.10 mph94%30.04 "Hg4 mi
12:50 PM57 °FLight rain. Broken clouds.10 mph94%30.04 "HgN/A
12:20 PM59 °FLight rain. Broken clouds.9 mph88%30.04 "HgN/A
11:50 AM57 °FLight rain. Broken clouds.6 mph94%30.04 "HgN/A
11:20 AM57 °FRain. Partly sunny.6 mph88%30.01 "Hg6 mi
10:50 AM57 °FRain. Partly sunny.8 mph88%30.01 "HgN/A
10:20 AM55 °FLight rain. Broken clouds.9 mph94%30.01 "HgN/A
9:50 AM55 °FLight rain. Broken clouds.8 mph94%30.01 "Hg6 mi
9:20 AM55 °FRain. Broken clouds.7 mph94%30.01 "Hg4 mi
8:50 AM54 °FRain. Broken clouds.6 mph100%29.98 "Hg3 mi
8:20 AM54 °FRain. More clouds than sun.6 mph100%29.98 "Hg3 mi
7:50 AM54 °FRain. Mostly cloudy.3 mph94%29.98 "Hg3 mi
7:20 AM54 °FRain. Cloudy.5 mph94%29.98 "Hg3 mi
6:50 AM54 °FLight rain. Mostly cloudy.2 mph94%29.98 "Hg3 mi
6:20 AM54 °FLight rain. Partly cloudy.5 mph94%29.98 "Hg4 mi
5:50 AM54 °FLight rain. Partly cloudy.7 mph94%29.95 "Hg6 mi
5:20 AM54 °FLight rain. Partly cloudy.6 mph94%29.95 "HgN/A
4:50 AM54 °FLight rain. Partly cloudy.6 mph94%29.95 "HgN/A
4:20 AM54 °FLight rain. Partly cloudy.8 mph94%29.95 "HgN/A
3:50 AM54 °FLight rain. Partly cloudy.6 mph94%29.95 "HgN/A
3:20 AM54 °FPartly cloudy.6 mph88%29.95 "HgN/A
2:50 AM54 °FPartly cloudy.5 mph88%29.95 "HgN/A
2:20 AM54 °FPassing clouds.6 mph88%29.95 "HgN/A
1:50 AM54 °FPassing clouds.8 mph94%29.98 "HgN/A
1:20 AM54 °FPassing clouds.10 mph88%29.98 "HgN/A
12:50 AM54 °FPartly cloudy.13 mph88%29.98 "HgN/A
12:20 AM54 °FLight rain. Passing clouds.12 mph94%29.98 "HgN/A
11:50 PM
Aug 31
54 °FSprinkles. Partly cloudy.10 mph94%29.98 "HgN/A
11:20 PM55 °FSprinkles. Partly cloudy.9 mph88%29.98 "HgN/A
10:50 PM55 °FLight rain. Partly cloudy.8 mph88%29.98 "HgN/A
10:20 PM55 °FLight rain. Partly cloudy.8 mph88%29.98 "HgN/A
9:50 PM55 °FLight rain. Partly cloudy.13 mph94%29.98 "HgN/A
9:20 PM57 °FLight rain. Partly cloudy.14 mph94%29.95 "HgN/A
8:50 PM57 °FLight rain. Partly cloudy.12 mph94%29.95 "HgN/A
8:20 PM59 °FLight rain. Broken clouds.13 mph88%29.95 "HgN/A
7:20 PM61 °FPartly sunny.10 mph83%29.92 "HgN/A
6:50 PM61 °FBroken clouds.10 mph83%29.89 "HgN/A
6:20 PM61 °FBroken clouds.5 mph83%29.89 "HgN/A
5:50 PM63 °FScattered showers. Broken clouds.5 mph73%29.89 "HgN/A
5:20 PM63 °FPartly sunny.15 mph77%29.92 "HgN/A
Weather by CustomWeather, © 2014

See weather overviewHow to use our weather pages